Regional Weather Roundup
Issued by NWS

Home | Current Version | Previous Version | Text Only | Print | Product List | Glossary On
Versions: 1 2 3 4 5 6 7 8 9 10 11 12 13 14 15 16 17 18 19 20 21 22 23 24 25 26 27 28 29 30 31 32 33 34 35 36 37 38 39 40 41 42 43 44 45 46 47 48 49 50
000
ASUS43 KDTX 221801
RWRMI
MICHIGAN HOURLY REGIONAL WEATHER ROUNDUP
NATIONAL WEATHER SERVICE DETROIT/PONTIAC MI
200 PM EDT TUE JUL 22 2014

NOTE: "FAIR" INDICATES FEW OR NO CLOUDS BELOW 12,000 FEET WITH NO
SIGNIFICANT WEATHER AND/OR OBSTRUCTION TO VISIBILITY.

MIZ047>049-052>055-059>063-066>070-074>076-081>083-221900-
SOUTHEAST LOWER MICHIGAN

CITY           SKY/WX    TMP DP  RH WIND       PRES   REMARKS
ADRIAN         SUNNY     88  63  43 SW14      30.04F
6HR MIN TEMP:  66; 6HR MAX TEMP:  89;

ALMA           SUNNY     85  65  51 SW13G23   30.00R
6HR MIN TEMP:  67; 6HR MAX TEMP:  85;

ANN ARBOR      SUNNY     86  64  47 S9        30.02F
BAD AXE        SUNNY     84  65  51 S15G24    29.98F
6HR MIN TEMP:  68; 6HR MAX TEMP:  84;

CARO           SUNNY     87  66  49 SW14      29.98F
DETROIT CITY   SUNNY     89  65  44 S9        30.01F HX  91
6HR MIN TEMP:  72; 6HR MAX TEMP:  89;

DETROIT        SUNNY     88  65  46 SW10G18   30.02F HX  90
6HR MIN TEMP:  70; 6HR MAX TEMP:  88;

FLINT          SUNNY     87  65  47 S14       30.00F
6HR MIN TEMP:  72; 6HR MAX TEMP:  87;

GROSSE ILE     SUNNY     81  72  74 SE12      30.02F
HILLSDALE      SUNNY     85  65  51 SW12      30.05F
6HR MIN TEMP:  69; 6HR MAX TEMP:  85;

HOWELL         SUNNY     86  62  44 SW13G20   30.02F
6HR MIN TEMP:  68; 6HR MAX TEMP:  86;


CITY           SKY/WX    TMP DP  RH WIND       PRES   REMARKS
JACKSON        MOSUNNY   84  67  56 SW12G18   30.04S
6HR MIN TEMP:  70; 6HR MAX TEMP:  85;

LAMBERTVILLE   SUNNY     88  63  42 S9        30.04F
LANSING        SUNNY     85  66  53 SW16G23   30.02S
6HR MIN TEMP:  69; 6HR MAX TEMP:  85;

LAPEER         FAIR      86  61  42 SW10      30.01F
MASON          SUNNY     83  66  55 SW12      30.03S
MONROE         SUNNY     88  61  40 SW12G18   30.01F
MT. CLEMENS    SUNNY     85  67  53 S16       30.00F
6HR MIN TEMP:  69; 6HR MAX TEMP:  85;

PONTIAC        SUNNY     86  62  44 SW12      30.01F
6HR MIN TEMP:  69; 6HR MAX TEMP:  87;

PORT HOPE        N/A     85  64  49 SW10G17   29.95F
6HR MIN TEMP:  70; 6HR MAX TEMP:  85;

PORT HURON     SUNNY     84  68  58 S14       30.01F
TRI CITIES     SUNNY     86  67  52 S17G24    29.97F
6HR MIN TEMP:  69; 6HR MAX TEMP:  87;

TROY           SUNNY     87  61  40 SW12G20   30.02F
SAGINAW HB     SUNNY     86  64  48 SW16      29.98S
$$
MIZ043>046-050>051-056>058-064>065-071>073-077>080-221900-
SOUTHWEST LOWER MICHIGAN

CITY           SKY/WX    TMP DP  RH WIND       PRES   REMARKS
BATTLE CREEK   SUNNY     86  66  51 SW15G23   30.04F
6HR MIN TEMP:  69; 6HR MAX TEMP:  86;

BENTON HARBOR  SUNNY     83  67  58 SW13      30.02F
6HR MIN TEMP:  68; 6HR MAX TEMP:  83;

BIG RAPIDS     PTSUNNY   82  66  58 SW14G22   29.97F
6HR MIN TEMP:  66; 6HR MAX TEMP:  82;

COLDWATER      MOSUNNY   85  67  53 SW12G21   30.05S
6HR MIN TEMP:  70; 6HR MAX TEMP:  85;

FREMONT        FAIR      85  64  49 SW15G23   29.98F
HOLLAND        SUNNY     86  67  52 SW16G25   30.02F
6HR MIN TEMP:  69; 6HR MAX TEMP:  86;

GRAND RAPIDS   MOSUNNY   86  69  56 W18       30.02S HX  90
6HR MIN TEMP:  70; 6HR MAX TEMP:  86;

IONIA          FAIR      85  66  53 SW13      30.01S
KALAMAZOO      MOSUNNY   85  67  54 S15       30.04F
6HR MIN TEMP:  69; 6HR MAX TEMP:  86;

LUDINGTON      PTSUNNY   80  68  66 S18G30    29.92F
6HR MIN TEMP:  74; 6HR MAX TEMP:  80;

MARSHALL       MOSUNNY   84  67  57 SW10      30.04S
MOUNT PLEASANT MOSUNNY   85  67  54 S10G20    29.98S
6HR MIN TEMP:  68; 6HR MAX TEMP:  85;

MUSKEGON       PTSUNNY   81  65  58 S21G31    29.99F
6HR MIN TEMP:  74; 6HR MAX TEMP:  82;

SOUTH HAVEN    SUNNY     82  69  64 SW9       30.02F
$$
MIZ016>042-221900-
NORTHERN LOWER MICHIGAN

CITY           SKY/WX    TMP DP  RH WIND       PRES   REMARKS
ALPENA         SUNNY     86  65  49 SW14G22   29.87F
6HR MIN TEMP:  70; 6HR MAX TEMP:  86;

BEAVER ISLAND  CLOUDY    69  66  90 SW12G17   29.84S
6HR MIN TEMP:  69; 6HR MAX TEMP:  78;

BELLAIRE       CLOUDY    83  66  57 S9G22     29.83F
6HR MIN TEMP:  73; 6HR MAX TEMP:  84;

CADILLAC       MOSUNNY   83  69  61 S18G29    29.93F
CHARLEVOIX     CLOUDY    82  69  63 S16G25    29.85F
6HR MIN TEMP:  72; 6HR MAX TEMP:  82;

FRANKFORT      CLOUDY    78  65  64 S21G31    29.88F
GAYLORD        MOSUNNY   85  63  47 SW22G31   29.88F
GRAYLING       MOSUNNY   84  65  51 S14G24    29.93F
HARBOR SPRINGS CLOUDY    81  67  63 SW13G23   29.84R
HOUGHTON LAKE  PTSUNNY   82  64  54 SW15G23   29.95F
6HR MIN TEMP:  71; 6HR MAX TEMP:  83;

MANISTEE       CLOUDY    81  66  61 SW16      29.91F
OSCODA         SUNNY     85  64  49 S15G23    29.92F
PELLSTON       CLOUDY    83  67  58 SW10G24   29.84S
6HR MIN TEMP:  71; 6HR MAX TEMP:  87; 6HR PCP: TRACE;

ROGERS CITY    MOSUNNY   86  67  52 SW15G29   29.84F
TRAVERSE CITY  PTSUNNY   86  67  52 SW15G25   29.84F
6HR MIN TEMP:  74; 6HR MAX TEMP:  86;

$$
MIZ007>008-015-221900-
EASTERN UPPER MICHIGAN

CITY           SKY/WX    TMP DP  RH WIND       PRES   REMARKS
KINROSS        CLOUDY    75  70  83 S10G20    29.80F THUNDER
6HR MIN TEMP:  70; 6HR MAX TEMP:  81;

MACKINAC ISLAN CLOUDY    79  67  67 SW17G26   29.81S
6HR MIN TEMP:  69; 6HR MAX TEMP:  80;

NEWBERRY       CLOUDY    68  63  84 SW22G32   29.80R
S. S. MARIE    LGT RAIN  78  66  66 S17G26    29.76F
6HR MIN TEMP:  66; 6HR MAX TEMP:  81; 6HR PCP: TRACE;

MUNISING         N/A     81  63  54 NW8       29.75R
6HR MIN TEMP:  72; 6HR MAX TEMP:  81;

$$
MIZ004>006-011>014-085-221900-
CENTRAL UPPER MICHIGAN

CITY           SKY/WX    TMP DP  RH WIND       PRES   REMARKS
MANISTIQUE     MOSUNNY   68  63  84 S17G24    29.79S
6HR MIN TEMP:  63; 6HR MAX TEMP:  68;

ESCANABA       MOSUNNY   88  72  58 SW13G18   29.75F HX  94
6HR MIN TEMP:  66; 6HR MAX TEMP:  88;

MENOMINEE      MOSUNNY   86  72  62 W12G18    29.80S HX  92
6HR MIN TEMP:  73; 6HR MAX TEMP:  86;

SAWYER-GWINN   PTSUNNY   82  64  54 W18G28    29.79R
$$
MIZ001>003-009>011-084-221900-
WESTERN UPPER MICHIGAN

CITY           SKY/WX    TMP DP  RH WIND       PRES   REMARKS
IRON MOUNTAIN  MOSUNNY   84  63  49 NW18G30   29.82R
6HR MIN TEMP:  70; 6HR MAX TEMP:  87;

HOUGHTON       MOSUNNY   73  62  68 W28G40    29.79R
6HR MIN TEMP:  67; 6HR MAX TEMP:  74; 6HR PCP:  0.38;

COPPER HARBOR    N/A     70  62  76 NW18G39   29.73R
6HR MIN TEMP:  65; 6HR MAX TEMP:  75; 6HR PCP:  0.51;

IRONWOOD       CLOUDY    72  63  73 W12G18    29.89R
6HR MIN TEMP:  72; 6HR MAX TEMP:  75;

$$

ABBREVIATIONS USED IN REMARKS
   TC - TEMPERATURE IN CELSIUS
  WCI - WIND CHILL INDEX
   HX - HEAT INDEX
  VSB - VISIBILITY



USA.gov is the U.S. government's official web portal to all federal, state and local government web resources and services.